Manistique, MI

4:35 PM EDT on August 24, 2016 (GMT -0400)
Schoolcraft County

Weather History for KISQ - November, 2012

Change the Weather History Date:

Monday, November 5, 2012

  Actual Average Record
Temperature  
Mean Temperature 28 °F -  
Max Temperature 33 °F 45 °F 69 °F (1963)
Min Temperature 24 °F 29 °F 8 °F (1951)
Degree Days  
Heating Degree Days 36    
Moisture  
Dew Point 20 °F    
Average Humidity 67    
Maximum Humidity 75    
Minimum Humidity 55    
Precipitation  
Precipitation 0.00 in - - ()
Sea Level Pressure  
Sea Level Pressure 30.23 in    
Wind  
Wind Speed 5 mph (NNE)    
Max Wind Speed 13 mph    
Max Gust Speed -    
Visibility 10 miles    
Events      
Averages and records for this station are not official NWS values.
T = Trace of Precipitation, MM = Missing Value Source: NWS Daily Summary

Daily Weather History Graph

Daily Weather History Graph

Search for Another Location

Airport or City:

Trip Planner

Search our weather history database for the weather conditions in past years. The results will help you decide how hot, cold, wet, or windy it might be!

Date:

Astronomy

Nov. 05, 2012 Rise Set
Actual Time 7:31 AM EST 5:24 PM EST
Civil Twilight 6:59 AM EST 5:55 PM EST
Nautical Twilight 6:24 AM EST 6:31 PM EST
Astronomical Twilight 5:49 AM EST 7:06 PM EST
Moon 11:01 PM EST (11/5) 12:51 PM EST (11/5)
Length of Visible Light 10h 55m
Length of Day
9h 52m
Waning Gibbous, 63% of the Moon is Illuminated
Nov 5
Waning Gibbous
Nov 6
Last Quarter
Nov 13
New
Nov 20
First Quarter
Nov 28
Full

Hourly Weather History & Observations

Time (EST) Temp. Windchill Dew Point Humidity Pressure Visibility Wind Dir Wind Speed Gust Speed Precip Events Conditions
12:15 AM 32.0 °F 27.5 °F 24.8 °F 75% 30.25 in 10.0 mi North 4.6 mph - N/A   Overcast
12:34 AM 30.2 °F 21.9 °F 23.0 °F 75% 30.25 in 10.0 mi North 9.2 mph - N/A   Overcast
12:55 AM 30.2 °F 23.4 °F 23.0 °F 75% 30.25 in 10.0 mi NNE 6.9 mph - N/A   Overcast
1:15 AM 30.2 °F 23.4 °F 23.0 °F 75% 30.25 in 10.0 mi North 6.9 mph - N/A   Overcast
1:34 AM 30.2 °F 22.6 °F 23.0 °F 75% 30.25 in 10.0 mi NE 8.1 mph - N/A   Overcast
1:55 AM 30.2 °F 22.6 °F 23.0 °F 75% 30.26 in 10.0 mi ENE 8.1 mph - N/A   Overcast
2:14 AM 30.2 °F 21.9 °F 21.2 °F 69% 30.26 in 10.0 mi NE 9.2 mph - N/A   Overcast
2:34 AM 30.2 °F 21.9 °F 21.2 °F 69% 30.26 in 10.0 mi North 9.2 mph - N/A   Overcast
2:55 AM 28.4 °F 19.1 °F 21.2 °F 74% 30.26 in 10.0 mi NNE 10.4 mph - N/A   Overcast
3:14 AM 28.4 °F 19.1 °F 21.2 °F 74% 30.25 in 10.0 mi NNE 10.4 mph - N/A   Overcast
3:35 AM 28.4 °F 19.7 °F 21.2 °F 74% 30.26 in 10.0 mi North 9.2 mph - N/A   Overcast
3:55 AM 28.4 °F 20.4 °F 21.2 °F 74% 30.26 in 10.0 mi North 8.1 mph - N/A   Overcast
4:14 AM 28.4 °F 19.7 °F 21.2 °F 74% 30.26 in 10.0 mi NNE 9.2 mph - N/A   Overcast
4:35 AM 28.4 °F 20.4 °F 21.2 °F 74% 30.26 in 10.0 mi NNE 8.1 mph - N/A   Overcast
4:54 AM 28.4 °F 21.2 °F 21.2 °F 74% 30.26 in 10.0 mi North 6.9 mph - N/A   Overcast
5:15 AM 28.4 °F 19.1 °F 21.2 °F 74% 30.27 in 10.0 mi NE 10.4 mph - N/A   Overcast
5:35 AM 28.4 °F 18.0 °F 17.6 °F 64% 30.27 in 10.0 mi ENE 12.7 mph - N/A   Overcast
5:54 AM 28.4 °F 18.5 °F 17.6 °F 64% 30.28 in 10.0 mi ENE 11.5 mph - N/A   Overcast
6:15 AM 26.6 °F 20.0 °F 17.6 °F 69% 30.28 in 10.0 mi NE 5.8 mph - N/A   Overcast
6:34 AM 26.6 °F 21.2 °F 17.6 °F 69% 30.28 in 10.0 mi NE 4.6 mph - N/A   Overcast
6:55 AM 26.6 °F 19.1 °F 17.6 °F 69% 30.28 in 10.0 mi NE 6.9 mph - N/A   Overcast
7:14 AM 26.6 °F 21.2 °F 17.6 °F 69% 30.28 in 10.0 mi NE 4.6 mph - N/A   Overcast
7:34 AM 24.8 °F - 15.8 °F 69% 30.28 in 10.0 mi Calm Calm - N/A   Scattered Clouds
7:55 AM 24.8 °F - 17.6 °F 74% 30.29 in 10.0 mi Calm Calm - N/A   Scattered Clouds
8:14 AM 24.8 °F - 17.6 °F 74% 30.29 in 10.0 mi Calm Calm - N/A   Mostly Cloudy
8:35 AM 26.6 °F 21.2 °F 17.6 °F 69% 30.29 in 10.0 mi ENE 4.6 mph - N/A   Overcast
8:55 AM 26.6 °F 20.0 °F 17.6 °F 69% 30.29 in 10.0 mi ENE 5.8 mph - N/A   Overcast
9:14 AM 28.4 °F 22.2 °F 17.6 °F 64% 30.29 in 10.0 mi East 5.8 mph - N/A   Overcast
9:35 AM 28.4 °F 20.4 °F 17.6 °F 64% 30.29 in 10.0 mi ENE 8.1 mph - N/A   Overcast
9:54 AM 28.4 °F 19.7 °F 17.6 °F 64% 30.30 in 10.0 mi NNE 9.2 mph - N/A   Overcast
10:14 AM 28.4 °F 21.2 °F 15.8 °F 59% 30.30 in 10.0 mi NE 6.9 mph - N/A   Overcast
10:35 AM 28.4 °F 22.2 °F 15.8 °F 59% 30.30 in 10.0 mi East 5.8 mph - N/A   Overcast
10:54 AM 30.2 °F 24.3 °F 15.8 °F 55% 30.30 in 10.0 mi ESE 5.8 mph - N/A   Scattered Clouds
11:15 AM 30.2 °F 24.3 °F 15.8 °F 55% 30.29 in 10.0 mi NE 5.8 mph - N/A   Scattered Clouds
11:34 AM 30.2 °F 24.3 °F 15.8 °F 55% 30.28 in 10.0 mi NE 5.8 mph - N/A   Overcast
11:54 AM 30.2 °F 25.4 °F 17.6 °F 60% 30.27 in 10.0 mi ENE 4.6 mph - N/A   Overcast
12:14 PM 32.0 °F - 17.6 °F 55% 30.26 in 10.0 mi Calm Calm - N/A   Overcast
12:34 PM 32.0 °F 27.5 °F 19.4 °F 60% 30.26 in 10.0 mi East 4.6 mph - N/A   Overcast
12:55 PM 32.0 °F - 19.4 °F 60% 30.25 in 10.0 mi Calm Calm - N/A   Overcast
1:14 PM 32.0 °F 28.7 °F 19.4 °F 60% 30.24 in 10.0 mi East 3.5 mph - N/A   Overcast
1:35 PM 33.8 °F - 19.4 °F 56% 30.24 in 10.0 mi Calm Calm - N/A   Overcast
1:55 PM 33.8 °F - 19.4 °F 56% 30.24 in 10.0 mi Calm Calm - N/A   Overcast
2:14 PM 33.8 °F - 19.4 °F 56% 30.24 in 10.0 mi Calm Calm - N/A   Overcast
2:35 PM 33.8 °F - 21.2 °F 60% 30.23 in 10.0 mi Calm Calm - N/A   Overcast
2:54 PM 33.8 °F - 21.2 °F 60% 30.23 in 10.0 mi Calm Calm - N/A   Overcast
3:14 PM 33.8 °F - 21.2 °F 60% 30.22 in 10.0 mi Calm Calm - N/A   Overcast
3:35 PM 33.8 °F - 19.4 °F 56% 30.22 in 10.0 mi Calm Calm - N/A   Overcast
3:54 PM 33.8 °F - 19.4 °F 56% 30.21 in 10.0 mi Calm Calm - N/A   Overcast
4:15 PM 33.8 °F - 21.2 °F 60% 30.21 in 10.0 mi Calm Calm - N/A   Overcast
4:35 PM 33.8 °F - 21.2 °F 60% 30.20 in 10.0 mi Calm Calm - N/A   Overcast
4:54 PM 33.8 °F 30.8 °F 21.2 °F 60% 30.19 in 10.0 mi NNE 3.5 mph - N/A   Overcast
5:15 PM 33.8 °F 29.6 °F 21.2 °F 60% 30.20 in 10.0 mi NNE 4.6 mph - N/A   Overcast
5:34 PM 32.0 °F 28.7 °F 21.2 °F 64% 30.19 in 10.0 mi NE 3.5 mph - N/A   Overcast
5:55 PM 32.0 °F 28.7 °F 21.2 °F 64% 30.19 in 10.0 mi NE 3.5 mph - N/A   Overcast
6:14 PM 32.0 °F 28.7 °F 21.2 °F 64% 30.19 in 10.0 mi NNE 3.5 mph - N/A   Overcast
6:35 PM 32.0 °F 28.7 °F 21.2 °F 64% 30.19 in 10.0 mi NNE 3.5 mph - N/A   Overcast
6:55 PM 32.0 °F - 21.2 °F 64% 30.19 in 10.0 mi Calm Calm - N/A   Overcast
7:14 PM 30.2 °F 26.7 °F 21.2 °F 69% 30.19 in 10.0 mi North 3.5 mph - N/A   Overcast
7:35 PM 32.0 °F 28.7 °F 21.2 °F 64% 30.18 in 10.0 mi North 3.5 mph - N/A   Overcast
7:54 PM 32.0 °F 27.5 °F 21.2 °F 64% 30.19 in 10.0 mi NW 4.6 mph - N/A   Overcast
8:15 PM 30.2 °F 26.7 °F 21.2 °F 69% 30.18 in 10.0 mi North 3.5 mph - N/A   Overcast
8:34 PM 30.2 °F - 21.2 °F 69% 30.17 in 10.0 mi Calm Calm - N/A   Overcast
8:54 PM 30.2 °F - 21.2 °F 69% 30.16 in 10.0 mi Calm Calm - N/A   Overcast
9:15 PM 30.2 °F - 23.0 °F 75% 30.16 in 10.0 mi Calm Calm - N/A   Overcast
9:34 PM 30.2 °F - 23.0 °F 75% 30.15 in 10.0 mi Calm Calm - N/A   Overcast
9:55 PM 30.2 °F - 23.0 °F 75% 30.14 in 10.0 mi Calm Calm - N/A   Overcast
10:14 PM 30.2 °F - 23.0 °F 75% 30.14 in 10.0 mi Calm Calm - N/A   Overcast
10:34 PM 30.2 °F 24.3 °F 23.0 °F 75% 30.14 in 10.0 mi WNW 5.8 mph - N/A   Overcast
10:54 PM 30.2 °F 25.4 °F 23.0 °F 75% 30.14 in 10.0 mi WNW 4.6 mph - N/A   Overcast
11:14 PM 32.0 °F - 23.0 °F 69% 30.13 in 10.0 mi Calm Calm - N/A   Overcast
11:35 PM 32.0 °F 28.7 °F 23.0 °F 69% 30.12 in 10.0 mi NW 3.5 mph - N/A   Overcast
11:54 PM 30.2 °F 26.7 °F 23.0 °F 75% 30.12 in 10.0 mi WNW 3.5 mph - N/A   Overcast